{"data":{"norad_id":51865,"epoch":"2026-09-20T03:15:48.214944Z","epoch_age_seconds":83306,"freshness":"FRESH","line1":"1 51865U 22022P   26263.13597471 -.00000711  00000+0 -94814-5 0  9990","line2":"2 51865  53.1593 205.2768 0001225  77.4273 282.6867 15.35401093252619","mean_motion":15.35401093,"eccentricity":0.0001225,"inclination_deg":53.1593,"raan_deg":205.2768,"arg_perigee_deg":77.4273,"mean_anomaly_deg":282.6867,"bstar":-9.4814e-6,"rev_number":25261,"period_min":93.786568640928,"perigee_km":458.89175900856,"apogee_km":460.56703627599,"semimajor_km":6837.8663976423,"source":"CELESTRAK","updated_at":"2026-09-20T09:00:39.947058Z"}}